User: anonymous   Login
Location: Irma
(52.9170°N, 111.2330°W)
Time: 06:52:14
(UTC-06:00)
Language:

Cosmos 2279 Rocket - Orbit

View from above orbital plane
View from above orbital plane
View from above satellite
View from above satellite

Ground track
Ground track

The orbit data is extracted from the following two-line orbital elements,

1 23093U 94024B   15108.18096608  .00000148  00000-0  13335-3 0  9990
2 23093 082.9484 342.7626 0011365 064.5656 295.6677 13.77653884522511
Epoch (UTC): 18 April 2015 04:20:35
Eccentricity: 0.0011365
inclination: 82.9484°
perigee height: 964 km
apogee height: 980 km
right ascension of ascending node: 342.7626°
argument of perigee: 64.5656°
revolutions per day: 13.77653884
mean anomaly at epoch: 295.6677°
orbit number at epoch: 52251

The dashed part of the orbit path shows where the satellite is in the earth's shadow,  

DLR